2020-081B

Last updated on Tue Dec 08 2020 00:02:03 GMT+0000 (Coordinated Universal Time)

1 46906U 20081B 20342.56066905 .00000524 00000-0 49321-4 0 9998 2 46906 36.9062 281.5664 0007809 215.2889 144.7337 14.98503023 4529
UTC large
Height (km)
Speed (km/s)
/
Latitude / Longitude
Inclination (degrees)
Orbital Period (minutes)
Azimuth
Elevation
Range (km)
Doppler Factor

Next 0 passes for location: London (51.5072 / 0.1276)

Sorry there are no passes over London.